Wind_Speed
18 19 18 18 17 20 19 17 14 13 13 12 10 9 9 13 14 16 17 17 19 21 21 19 19 20 21 21 21 22 22 22 22 21 20 19 18 17 16 16 16 16 16
15 17 14 17 17 20 18 16 14 14 13 12 10 7 7 10 11 13 14 14 16 16 16 17 16 17 18 18 19 19 19 19 20 19 19 18 18 17 17 16 17 17 18
15 15 13 16 18 22 19 17 15 14 12 11 9 8 7 7 9 11 12 11 12 12 13 13 13 14 14 16 16 15 14 15 15 15 14 13 14 13 13 13 15 15 16
15 17 17 15 21 22 21 18 15 13 11 10 8 8 7 6 7 9 10 9 8 10 10 9 10 10 10 12 12 11 12 11 11 12 11 11 10 10 10 11 13 13 15
16 16 16 18 22 21 20 18 16 14 11 10 8 6 6 5 6 7 8 7 6 8 8 7 7 6 8 10 10 11 10 10 9 8 8 8 7 8 9 10 11 13 14
15 14 14 16 20 21 19 17 16 13 12 9 7 6 4 3 4 4 5 5 4 6 6 6 6 4 5 7 8 10 10 10 8 6 5 5 5 5 6 8 8 9 9
15 14 14 15 17 19 19 17 16 14 12 10 8 5 2 0 4 1 3 3 4 6 4 5 5 3 4 5 7 9 9 8 7 7 6 7 6 7 8 9 10 9 10
14 14 14 15 16 18 18 17 16 14 12 9 6 5 2 3 8 6 1 2 6 6 4 5 5 4 3 4 6 6 7 8 9 10 11 11 11 12 11 12 12 13 13
15 15 14 16 17 18 19 18 16 14 6 10 7 6 3 8 4 2 3 2 4 3 3 3 3 4 3 3 3 5 6 7 8 9 10 10 10 12 12 12 11 11 12
15 16 15 16 17 19 19 18 17 15 15 11 9 7 6 5 5 2 3 8 2 4 1 1 1 2 3 2 1 3 5 6 8 8 10 10 10 11 11 11 12 13 14
17 17 17 16 18 18 19 18 16 16 13 11 11 9 9 6 3 3 8 14 3 5 6 6 5 4 4 4 2 3 3 4 6 7 8 9 10 11 11 11 11 11 12
20 19 17 17 18 19 18 17 16 15 14 12 12 11 10 8 2 3 5 1 4 14 5 8 8 7 6 5 5 4 4 4 5 6 7 8 8 9 10 11 12 12 12
21 21 18 18 18 18 17 18 17 16 16 14 13 13 11 10 8 8 7 4 2 9 7 10 11 10 9 8 7 7 4 5 5 6 8 8 8 9 8 9 12 14 13
21 21 22 20 19 20 18 18 16 16 16 16 15 14 13 11 11 11 11 10 8 7 9 10 11 11 9 8 8 8 6 7 7 8 8 9 9 10 10 12 14 15 15
22 22 25 24 23 21 20 18 16 17 18 17 16 15 15 14 15 16 14 13 13 12 10 6 10 10 10 10 9 8 9 9 11 11 10 11 11 13 14 15 15 16 17
22 23 24 24 25 24 21 19 17 17 17 17 16 17 18 17 17 16 17 15 14 14 14 12 10 10 11 11 10 10 11 12 13 14 13 13 14 16 17 19 19 19 19
21 23 26 26 25 25 25 23 23 19 20 19 18 19 18 18 18 18 17 16 16 15 16 17 14 12 12 12 13 12 12 13 17 17 18 17 17 19 21 22 21 23 23
21 23 24 25 25 25 24 25 25 23 23 24 20 21 21 20 21 21 20 19 18 18 19 20 16 14 16 16 16 15 15 15 16 20 21 21 21 22 23 23 25 26 28
22 23 23 23 25 25 25 25 26 27 25 25 23 25 24 23 23 24 22 21 21 22 22 19 18 16 16 18 19 19 20 20 19 22 23 24 24 25 27 28 28 30 32
22 23 22 22 23 24 25 25 26 27 27 28 27 25 26 26 25 26 24 24 24 24 23 22 20 19 20 21 22 22 25 25 24 23 27 27 27 29 31 32 34 35 35
26 25 24 24 24 24 24 24 26 28 29 29 28 28 28 28 27 27 27 28 27 26 25 24 23 22 25 25 26 28 29 29 30 29 27 30 33 33 34 34 35 36 36
26 26 25 25 25 26 27 27 29 30 30 30 30 30 29 29 29 29 30 31 31 29 28 28 28 27 28 28 30 31 33 35 33 32 37 34 30 32 35 37 40 39 40
30 30 30 29 29 29 29 30 32 32 31 31 32 32 32 31 33 32 33 34 33 32 31 31 32 32 32 33 33 34 35 36 36 37 37 38 40 40 39 42 44 45 46
34 34 34 34 34 34 35 34 35 36 34 34 35 35 35 35 36 36 36 36 36 35 34 34 34 36 35 36 37 37 39 40 40 40 41 43 46 44 44 44 43 44 45
37 37 38 38 37 37 36 37 40 40 38 37 37 38 37 39 38 40 39 38 40 39 40 40 40 41 39 37 39 41 45 43 39 39 44 47 46 46 46 47 51 52 50
37 39 39 40 41 42 40 44 44 45 44 44 43 43 42 44 43 43 42 42 43 45 42 43 43 40 41 43 44 44 44 45 45 44 45 49 49 52 55 58 57 57 59
Wind_Direction
145 135 139 141 138 141 135 130 121 117 114 107 105 96 81 81 72 69 66 67 64 64 67 67 65 66 67 69 71 73 74 75 76 77 76 77 75 72 69 65 60 56 53
144 148 144 148 144 147 138 130 122 123 126 122 119 114 98 90 83 74 75 76 66 66 71 70 64 64 69 68 65 63 65 67 68 69 69 69 69 65 60 57 56 52 48
158 158 172 158 154 150 142 131 130 134 135 126 126 131 116 105 94 83 80 83 76 74 75 72 67 61 66 62 58 54 52 57 61 63 64 65 66 64 60 54 53 50 48
153 155 158 163 157 153 144 139 140 141 139 133 142 139 134 124 100 86 79 80 85 84 76 82 73 63 55 48 43 48 46 45 47 45 43 47 50 55 53 49 43 39 37
151 153 163 163 160 158 149 149 154 154 153 148 150 160 155 132 101 99 85 83 90 88 86 85 78 58 40 31 28 31 32 33 33 42 45 42 39 44 37 36 34 31 31
161 163 162 163 168 163 155 160 167 169 164 165 179 184 172 132 115 100 100 92 100 109 82 92 70 56 36 23 15 15 16 16 16 23 38 33 28 29 38 42 46 46 40
170 165 160 164 171 166 165 175 181 182 184 189 197 204 206 155 336 112 127 53 121 125 80 80 90 61 30 11 5 5 4 7 14 28 36 36 30 33 38 44 45 45 40
178 173 166 167 171 173 175 186 195 196 207 210 210 219 181 177 27 360 60 149 151 131 78 82 61 44 11 2 358 360 12 17 27 27 33 34 35 33 30 25 25 25 22
187 183 177 173 177 180 179 190 199 211 215 248 236 233 216 311 144 64 47 70 149 125 96 75 53 28 346 331 348 16 22 19 27 24 29 32 24 23 22 22 23 17 12
191 188 184 182 183 183 186 192 201 212 203 223 241 254 251 203 239 47 135 122 145 309 272 241 210 354 333 319 333 17 17 11 9 14 15 13 10 11 10 8 8 5 1
196 194 192 188 187 186 191 197 206 213 215 222 238 249 255 254 253 325 290 6 106 32 289 278 266 271 300 289 278 335 346 351 352 356 358 1 3 2 359 359 358 353 347
209 202 198 194 189 192 196 200 208 212 219 227 243 246 251 261 257 286 273 149 344 234 262 294 273 265 270 279 270 304 306 319 322 333 340 345 350 355 355 350 346 338 331
212 209 201 201 197 196 199 208 212 213 220 226 237 244 250 262 262 272 285 278 271 296 279 282 281 263 256 264 274 267 265 282 300 308 319 331 332 339 341 336 332 328 321
212 212 209 206 206 213 213 206 212 218 225 227 233 244 247 258 262 277 285 290 283 282 285 293 272 268 259 258 263 256 248 269 284 295 301 304 312 316 313 316 324 322 316
221 218 218 213 212 218 214 223 221 223 230 232 237 242 247 256 262 275 279 278 285 291 296 274 279 275 264 253 249 248 260 273 281 286 286 292 292 294 302 305 305 313 313
227 229 226 223 220 222 220 221 222 229 235 241 241 245 247 251 259 262 264 275 275 286 292 300 279 266 263 260 261 258 266 278 280 283 286 284 282 286 292 298 300 305 308
223 233 232 228 227 222 223 230 229 230 242 239 240 242 249 256 262 265 266 268 270 278 287 292 288 270 266 264 266 263 272 278 285 284 286 285 286 289 294 298 299 301 305
222 229 235 231 230 233 231 230 228 233 241 243 243 241 252 260 266 266 268 269 271 279 286 289 281 270 266 269 270 270 275 278 282 286 284 285 287 291 294 296 300 302 302
220 224 232 234 232 229 232 233 237 239 241 243 250 249 257 260 265 266 269 268 273 278 281 278 276 272 267 269 277 281 283 285 283 284 286 287 291 293 295 296 297 297 297
231 223 222 228 233 234 237 237 239 241 242 244 250 253 255 260 262 266 266 267 269 276 278 275 270 272 276 278 276 278 283 284 282 285 289 289 292 292 291 294 296 297 298
237 236 229 227 228 230 234 237 239 240 241 244 246 249 253 258 260 261 263 264 268 274 275 272 272 272 276 278 280 280 282 282 283 285 281 289 294 293 294 297 295 296 298
237 238 237 235 234 233 234 235 238 238 241 245 249 251 254 255 257 258 259 266 270 268 268 269 271 271 272 276 278 278 279 279 281 287 288 288 283 290 296 299 301 299 298
238 238 237 236 238 240 241 241 243 242 243 246 249 251 251 253 256 259 261 264 267 269 269 271 273 273 271 271 275 277 280 283 285 287 288 289 289 291 293 296 297 296 294
240 241 241 241 242 243 248 248 249 250 248 251 253 256 258 259 262 263 264 266 268 266 266 268 272 273 273 274 274 277 277 280 280 282 286 291 291 291 294 297 299 300 298
248 246 247 247 246 249 250 251 252 252 252 253 254 257 261 263 265 267 267 266 267 267 265 263 267 270 272 274 277 278 281 282 288 283 290 295 289 288 293 298 297 294 291
246 247 245 250 250 249 249 252 254 255 254 255 256 258 260 263 264 265 268 268 269 271 270 271 275 278 281 280 281 283 284 287 288 287 287 291 286 289 294 296 296 292 291
Height
5915 5916 5919 5922 5924 5925 5929 5931 5932 5933 5934 5935 5936 5937 5937 5936 5935 5934 5933 5932 5931 5929 5928 5928 5927 5926 5924 5923 5922 5920 5919 5917 5915 5914 5913 5913 5913 5913 5912 5910 5908 5906 5904
5914 5918 5922 5923 5925 5927 5931 5932 5934 5935 5936 5936 5938 5938 5939 5938 5938 5936 5935 5935 5933 5932 5931 5931 5931 5930 5929 5928 5926 5926 5925 5922 5921 5919 5918 5917 5916 5915 5914 5913 5911 5909 5907
5915 5920 5923 5924 5926 5929 5932 5933 5935 5935 5937 5937 5939 5940 5940 5940 5939 5938 5937 5936 5935 5934 5934 5933 5933 5934 5933 5931 5930 5930 5929 5926 5924 5923 5922 5920 5919 5918 5917 5916 5915 5913 5912
5916 5919 5925 5927 5928 5930 5932 5934 5936 5936 5937 5939 5940 5942 5941 5940 5939 5939 5938 5937 5937 5937 5936 5936 5936 5935 5935 5933 5933 5934 5932 5930 5927 5925 5924 5923 5921 5920 5919 5918 5917 5916 5915
5917 5922 5925 5927 5928 5931 5933 5935 5937 5937 5938 5940 5941 5942 5942 5941 5940 5940 5939 5938 5938 5937 5937 5937 5937 5937 5936 5935 5935 5935 5934 5933 5931 5929 5927 5925 5923 5922 5921 5920 5919 5918 5917
5919 5922 5925 5927 5930 5932 5935 5937 5938 5939 5939 5940 5941 5942 5943 5943 5941 5940 5940 5939 5939 5938 5938 5937 5937 5937 5937 5937 5936 5936 5935 5934 5933 5931 5930 5928 5926 5925 5924 5923 5921 5920 5919
5921 5923 5925 5928 5931 5933 5935 5937 5938 5940 5940 5941 5941 5942 5943 5944 5943 5941 5940 5939 5938 5939 5938 5938 5939 5938 5938 5938 5937 5936 5936 5935 5934 5933 5931 5930 5928 5927 5925 5924 5923 5922 5920
5921 5923 5925 5927 5930 5933 5935 5937 5939 5941 5942 5942 5943 5943 5944 5941 5942 5945 5943 5940 5939 5939 5939 5939 5939 5940 5939 5939 5938 5937 5936 5936 5935 5933 5932 5931 5930 5928 5927 5925 5924 5923 5921
5921 5923 5925 5927 5929 5932 5934 5937 5939 5941 5946 5945 5944 5944 5944 5929 5936 5931 5946 5945 5943 5941 5940 5940 5940 5940 5940 5940 5939 5938 5937 5937 5936 5934 5933 5931 5930 5929 5928 5927 5926 5924 5923
5920 5922 5924 5927 5929 5932 5934 5936 5938 5941 5945 5945 5945 5945 5944 5945 5944 5943 5945 5937 5945 5947 5943 5941 5940 5941 5940 5940 5940 5939 5938 5937 5936 5935 5934 5932 5931 5931 5930 5928 5927 5925 5924
5919 5921 5923 5926 5928 5931 5933 5935 5937 5939 5941 5942 5943 5943 5944 5944 5945 5946 5941 5932 5936 5930 5946 5944 5940 5939 5939 5939 5940 5939 5939 5938 5937 5936 5935 5934 5933 5931 5930 5929 5928 5927 5926
5919 5921 5923 5925 5927 5929 5932 5933 5935 5937 5938 5940 5941 5942 5942 5943 5945 5934 5945 5943 5935 5933 5939 5944 5941 5938 5938 5938 5938 5939 5938 5937 5936 5936 5935 5934 5934 5932 5931 5929 5928 5926 5925
5918 5920 5922 5925 5927 5929 5930 5932 5934 5935 5937 5938 5939 5940 5941 5941 5942 5943 5943 5942 5942 5940 5941 5938 5940 5937 5936 5937 5936 5937 5937 5936 5936 5935 5934 5933 5932 5931 5930 5929 5928 5926 5924
5915 5919 5921 5923 5926 5928 5929 5931 5933 5935 5936 5937 5937 5938 5939 5940 5940 5941 5940 5940 5941 5941 5939 5934 5938 5935 5935 5935 5935 5934 5934 5934 5934 5934 5933 5932 5931 5930 5928 5927 5926 5924 5922
5914 5916 5918 5920 5923 5925 5927 5930 5932 5933 5934 5935 5936 5937 5937 5937 5939 5939 5940 5942 5938 5937 5938 5937 5935 5934 5933 5933 5933 5933 5932 5932 5931 5931 5931 5930 5929 5928 5926 5925 5923 5921 5919
5910 5912 5914 5917 5920 5923 5925 5927 5929 5930 5932 5933 5934 5934 5934 5935 5936 5936 5936 5936 5935 5935 5934 5934 5933 5932 5932 5932 5931 5931 5931 5929 5928 5928 5927 5927 5926 5925 5923 5921 5919 5917 5915
5907 5909 5911 5913 5916 5918 5921 5923 5926 5928 5929 5930 5931 5932 5932 5932 5932 5933 5933 5933 5932 5932 5932 5930 5930 5929 5930 5929 5928 5928 5927 5927 5925 5925 5924 5923 5922 5921 5919 5917 5915 5913 5911
5902 5904 5906 5910 5913 5915 5918 5919 5922 5925 5926 5926 5927 5929 5929 5930 5929 5929 5929 5929 5929 5928 5928 5927 5926 5925 5925 5926 5925 5924 5923 5923 5923 5921 5920 5919 5917 5916 5914 5912 5910 5908 5905
5897 5900 5903 5906 5908 5910 5913 5915 5917 5920 5921 5923 5924 5925 5925 5926 5925 5925 5925 5925 5924 5924 5924 5923 5922 5921 5921 5921 5920 5919 5918 5918 5918 5916 5915 5914 5912 5910 5907 5905 5903 5900 5898
5894 5895 5898 5901 5903 5905 5907 5909 5912 5914 5916 5918 5919 5920 5920 5920 5920 5920 5921 5921 5920 5920 5919 5918 5918 5918 5917 5916 5915 5914 5913 5912 5911 5911 5909 5907 5906 5903 5901 5899 5896 5893 5890
5890 5892 5893 5895 5897 5899 5901 5903 5905 5908 5910 5911 5913 5914 5914 5915 5915 5914 5915 5915 5915 5914 5914 5913 5913 5913 5912 5911 5910 5909 5907 5906 5903 5903 5904 5902 5898 5896 5893 5891 5888 5885 5882
5884 5886 5889 5890 5892 5894 5896 5898 5899 5901 5903 5905 5906 5907 5908 5908 5909 5908 5909 5908 5909 5908 5907 5907 5907 5907 5906 5905 5904 5903 5901 5897 5897 5896 5889 5892 5894 5890 5887 5882 5878 5875 5872
5878 5881 5883 5885 5887 5889 5891 5893 5894 5895 5896 5898 5899 5900 5900 5901 5902 5902 5902 5901 5901 5901 5901 5900 5901 5900 5899 5897 5896 5895 5892 5891 5889 5887 5884 5880 5880 5879 5877 5873 5870 5866 5862
5871 5873 5876 5878 5880 5881 5884 5887 5888 5888 5891 5892 5892 5893 5894 5895 5895 5894 5894 5895 5895 5894 5893 5892 5892 5892 5891 5889 5887 5886 5885 5883 5880 5878 5875 5872 5869 5867 5865 5861 5857 5854 5850
5864 5866 5868 5871 5872 5873 5876 5877 5878 5881 5883 5884 5884 5885 5887 5886 5888 5886 5887 5887 5885 5886 5884 5882 5883 5882 5881 5879 5878 5876 5875 5871 5868 5868 5865 5862 5859 5854 5852 5849 5846 5843 5839
5854 5857 5859 5862 5863 5863 5867 5868 5870 5871 5873 5873 5875 5876 5878 5876 5877 5877 5877 5876 5875 5873 5873 5871 5871 5871 5870 5869 5867 5865 5863 5861 5859 5857 5855 5851 5848 5844 5841 5837 5833 5829 5825